FW8249 Weather Reports


Display with metric or nautical units.
time (UTC)temp
F
wind
direction
speed
MPH
gust
MPH
rain 1hr
in
rain 24hr
in
rain mn
in
humidity
%
barometer
mb
20260506041606 40 0 0.0 0.0 0.00 0.00 0.00 83 1019.6
20260506040101 41 0 0.0 0.0 0.00 0.00 0.00 82 1019.7
20260506034601 41 0 0.0 0.0 0.00 0.00 0.00 81 1020.0
20260506033055 41 0 0.0 0.0 0.00 0.00 0.00 81 1020.0
20260506031553 41 0 0.0 0.0 0.00 0.00 0.00 81 1019.9
20260506030051 41 0 0.0 0.0 0.00 0.00 0.00 81 1019.9
20260506024600 42 0 0.0 0.0 0.00 0.00 0.00 81 1019.9
20260506023057 42 0 0.0 0.0 0.00 0.00 0.00 81 1020.0
20260506021554 42 0 0.0 0.0 0.00 0.00 0.00 80 1019.9
20260506020121 43 0 0.0 0.0 0.00 0.00 0.00 79 1020.2
20260506014558 43 0 0.0 4.0 0.00 0.00 0.00 79 1020.3
20260506013059 43 0 0.0 1.0 0.00 0.00 0.00 79 1020.4
20260506011601 44 0 0.0 2.0 0.00 0.00 0.00 79 1020.6
20260506010052 44 0 0.0 0.0 0.00 0.00 0.00 79 1020.6
20260506004551 44 0 0.0 0.0 0.00 0.00 0.00 80 1020.6
20260506003056 45 0 0.0 3.0 0.00 0.00 0.00 79 1020.5
20260506001603 45 0 0.0 0.0 0.00 0.00 0.00 80 1020.5
20260506000116 45 0 0.0 0.0 0.00 0.00 0.00 80 1020.5
20260505234552 46 0 0.0 1.0 0.00 0.00 0.00 79 1020.5
20260505233054 46 0 0.0 2.0 0.00 0.00 0.00 78 1020.7
20260505231557 47 0 0.0 6.0 0.00 0.00 0.00 78 1020.7
20260505230054 47 0 0.0 3.0 0.00 0.00 0.00 81 1020.8
20260505224552 47 0 0.0 1.0 0.00 0.00 0.00 83 1020.5
20260505223059 47 0 0.0 0.0 0.00 0.00 0.00 85 1020.5
20260505221558 47 0 0.0 0.0 0.00 0.00 0.00 85 1020.2
20260505220105 47 0 0.0 0.0 0.00 0.00 0.00 84 1020.4
20260505214601 47 0 0.0 0.0 0.00 0.00 0.00 85 1020.4
20260505213052 47 0 0.0 0.0 0.00 0.00 0.00 85 1020.4
20260505211631 47 0 0.0 0.0 0.00 0.00 0.00 84 1020.5
20260505210055 48 0 0.0 0.0 0.00 0.00 0.00 83 1020.6
20260505204605 49 0 0.0 0.0 0.00 0.00 0.00 81 1020.5
20260505203056 50 0 0.0 0.0 0.00 0.00 0.00 80 1020.3
20260505201552 50 0 0.0 0.0 0.00 0.00 0.00 78 1020.3
20260505200055 51 0 0.0 0.0 0.00 0.00 0.00 76 1020.2
20260505194554 52 0 0.0 0.0 0.00 0.00 0.00 75 1020.0
20260505193053 52 0 0.0 0.0 0.00 0.00 0.00 73 1020.1
20260505191602 53 0 0.0 0.0 0.00 0.00 0.00 72 1020.1
20260505190108 53 0 0.0 0.0 0.00 0.00 0.00 70 1020.0
20260505184554 53 0 0.0 0.0 0.00 0.00 0.00 70 1020.2
20260505183053 53 0 0.0 0.0 0.00 0.00 0.00 75 1020.2
20260505181634 53 0 0.0 0.0 0.00 0.00 0.00 74 1020.1
20260505180105 53 0 0.0 0.0 0.00 0.00 0.00 74 1020.1
20260505174556 53 0 0.0 0.0 0.00 0.00 0.00 73 1020.2
20260505173051 53 0 0.0 4.0 0.00 0.00 0.00 73 1020.2
20260505171559 53 0 0.0 1.0 0.00 0.00 0.00 71 1020.5
20260505170050 54 0 0.0 0.0 0.00 0.00 0.00 68 1020.3
20260505164554 54 0 0.0 0.0 0.00 0.00 0.00 68 1020.2
20260505163051 54 0 0.0 0.0 0.00 0.00 0.00 69 1020.2
20260505161553 54 0 0.0 0.0 0.00 0.00 0.00 70 1020.3
20260505153058 53 0 0.0 1.0 0.00 0.00 0.00 74 1020.6
20260505151556 52 0 0.0 4.0 0.00 0.00 0.00 75 1020.5
20260505124557 53 0 0.0 0.0 0.00 0.00 0.00 74 1020.6
20260505123431 53 0 0.0 4.0 0.00 0.00 0.00 73 1020.8
20260505121551 53 0 0.0 8.0 0.00 0.00 0.00 73 1020.7
20260505120111 54 314 0.0 0.0 0.00 0.00 0.00 72 1020.7
20260505114555 53 0 0.0 0.0 0.00 0.00 0.00 73 1020.7
20260505113053 52 0 0.0 0.0 0.00 0.00 0.00 78 1021.0
20260505111553 51 0 0.0 0.0 0.00 0.00 0.00 82 1021.1
20260505110109 50 0 0.0 4.0 0.00 0.00 0.00 83 1021.2
20260505101551 50 0 0.0 0.0 0.00 0.00 0.00 83 1021.0
20260505100056 51 0 0.0 1.0 0.00 0.00 0.00 81 1021.2
20260505094554 51 0 0.0 0.0 0.00 0.00 0.00 79 1021.2
20260505093052 50 0 0.0 2.0 0.00 0.00 0.00 80 1021.3
20260505091556 51 0 0.0 0.0 0.00 0.00 0.00 82 1021.4
20260505090058 50 0 0.0 1.0 0.00 0.00 0.00 82 1021.4
20260505084603 50 0 0.0 1.0 0.00 0.00 0.00 83 1021.4
20260505083105 49 0 0.0 1.0 0.00 0.00 0.00 84 1021.6
20260505081556 49 0 0.0 4.0 0.00 0.00 0.00 85 1021.4
20260505080055 48 0 0.0 0.0 0.00 0.00 0.00 86 1021.4
20260505074559 48 0 0.0 1.0 0.00 0.00 0.00 87 1021.3
20260505073102 48 0 0.0 0.0 0.00 0.00 0.00 88 1021.3
20260505071548 47 0 0.0 3.0 0.00 0.00 0.00 88 1021.3
20260505070053 47 0 0.0 1.0 0.00 0.00 0.00 89 1021.4
20260505064631 47 0 0.0 0.0 0.00 0.00 0.00 89 1021.4
20260505063053 46 0 0.0 0.0 0.00 0.00 0.00 89 1021.5
20260505061551 46 0 0.0 0.0 0.00 0.00 0.00 89 1021.3
20260505060056 46 0 0.0 0.0 0.00 0.00 0.00 90 1021.4
20260505054554 45 0 0.0 0.0 0.00 0.00 0.00 90 1021.3
20260505053057 45 0 0.0 0.0 0.00 0.00 0.00 90 1021.1
20260505051549 45 0 0.0 0.0 0.00 0.00 0.00 89 1021.0